When you browse on this site, cookies collect data to enhance your experience and personalize the content and advertising you see.
Visit our Privacy Policy to learn more. By continuing to use the site, you agree to this use of cookies and data.
  • In Hungary
  • List of Countries
  • For 7 days
  • Water Temperature
  • Satellite Maps
  • Weather Map
  • News
  • Weather Widgets
  • user-avatar
    Login

    Hourly Weather Channarayapatna

    Today, 20 January, Sunday

    Time Temperature Precipitation Wind Pressure Humidity
    00:00 +19°C° 0 mm 3 mps 689 mmHg 40%
    01:00 +18°C° 0 mm 3 mps 688 mmHg 47%
    02:00 +18°C° 0 mm 3 mps 688 mmHg 54%
    03:00 +17°C° 0 mm 3 mps 688 mmHg 62%
    04:00 +17°C° 0 mm 2 mps 688 mmHg 70%
    05:00 +16°C° 0 mm 2 mps 688 mmHg 86%
    06:00 +17°C° 0 mm 2 mps 689 mmHg 80%
    07:00 +18°C° 0 mm 3 mps 689 mmHg 74%
    08:00 +19°C° 0 mm 3 mps 690 mmHg 68%
    09:00 +22°C° 0 mm 3 mps 690 mmHg 54%
    10:00 +25°C° 0 mm 3 mps 690 mmHg 39%
    11:00 +28°C° 0 mm 4 mps 691 mmHg 25%
    12:00 +29°C° 0 mm 4 mps 690 mmHg 22%
    13:00 +30°C° 0 mm 4 mps 690 mmHg 20%
    14:00 +31°C° 0 mm 3 mps 689 mmHg 17%
    15:00 +30°C° 0 mm 3 mps 689 mmHg 18%
    16:00 +30°C° 0 mm 3 mps 689 mmHg 19%
    17:00 +28°C° 0 mm 3 mps 688 mmHg 22%
    18:00 +26°C° 0 mm 3 mps 688 mmHg 24%
    19:00 +25°C° 0 mm 2 mps 688 mmHg 27%
    20:00 +23°C° 0 mm 2 mps 689 mmHg 29%
    21:00 +21°C° 0 mm 2 mps 689 mmHg 32%
    22:00 +20°C° 0 mm 2 mps 689 mmHg 35%
    23:00 +19°C° 0 mm 2 mps 689 mmHg 38%

    Tomorrow, 21 January, Monday

    Time Temperature Precipitation Wind Pressure Humidity
    00:00 +19°C° 0 mm 2 mps 688 mmHg 44%
    01:00 +18°C° 0 mm 2 mps 688 mmHg 49%
    02:00 +17°C° 0 mm 2 mps 688 mmHg 54%
    03:00 +17°C° 0 mm 2 mps 687 mmHg 60%
    04:00 +16°C° 0 mm 2 mps 687 mmHg 66%
    05:00 +16°C° 0 mm 2 mps 687 mmHg 71%
    06:00 +17°C° 0 mm 2 mps 688 mmHg 69%
    07:00 +18°C° 0 mm 2 mps 688 mmHg 66%
    08:00 +19°C° 0 mm 2 mps 689 mmHg 64%
    09:00 +21°C° 0 mm 2 mps 689 mmHg 51%
    10:00 +25°C° 0 mm 3 mps 690 mmHg 39%
    11:00 +27°C° 0 mm 3 mps 690 mmHg 26%
    12:00 +28°C° 0 mm 3 mps 690 mmHg 23%
    13:00 +29°C° 0 mm 3 mps 689 mmHg 19%
    14:00 +30°C° 0 mm 3 mps 688 mmHg 15%
    15:00 +30°C° 0 mm 3 mps 688 mmHg 17%
    16:00 +29°C° 0 mm 2 mps 688 mmHg 18%
    17:00 +29°C° 0 mm 2 mps 688 mmHg 19%
    18:00 +27°C° 0 mm 2 mps 688 mmHg 22%
    19:00 +25°C° 0 mm 2 mps 688 mmHg 24%
    20:00 +23°C° 0 mm 2 mps 688 mmHg 26%
    21:00 +21°C° 0 mm 2 mps 688 mmHg 31%
    22:00 +20°C° 0 mm 2 mps 688 mmHg 37%
    23:00 +19°C° 0 mm 2 mps 688 mmHg 42%

    Day after tomorrow, 22 January, Tuesday

    Time Temperature Precipitation Wind Pressure Humidity
    00:00 +19°C° 0 mm 1 mps 688 mmHg 45%
    01:00 +19°C° 0 mm 1 mps 687 mmHg 49%
    02:00 +18°C° 0 mm 1 mps 687 mmHg 52%
    03:00 +18°C° 0 mm 1 mps 687 mmHg 54%
    04:00 +15°C° 0 mm 0 mps 687 mmHg 55%
    05:00 +15°C° 0 mm 0 mps 687 mmHg 57%
    06:00 +16°C° 0 mm 0 mps 687 mmHg 54%
    07:00 +19°C° 0 mm 1 mps 688 mmHg 52%
    08:00 +20°C° 0 mm 1 mps 689 mmHg 49%
    09:00 +22°C° 0 mm 1 mps 689 mmHg 43%
    10:00 +24°C° 0 mm 2 mps 689 mmHg 38%
    11:00 +27°C° 0 mm 2 mps 690 mmHg 32%
    12:00 +28°C° 0 mm 2 mps 689 mmHg 29%
    13:00 +29°C° 0 mm 2 mps 688 mmHg 26%
    14:00 +30°C° 0 mm 2 mps 688 mmHg 23%
    15:00 +29°C° 0 mm 2 mps 688 mmHg 23%
    16:00 +29°C° 0 mm 2 mps 688 mmHg 24%
    17:00 +29°C° 0 mm 2 mps 688 mmHg 24%
    18:00 +27°C° 0 mm 2 mps 688 mmHg 29%
    19:00 +25°C° 0 mm 2 mps 688 mmHg 34%
    20:00 +23°C° 0 mm 2 mps 688 mmHg 39%
    21:00 +21°C° 0 mm 2 mps 688 mmHg 53%
    22:00 +20°C° 0 mm 2 mps 688 mmHg 68%
    23:00 +19°C° 0 mm 2 mps 688 mmHg 82%

    23 January, Wednesday

    Time Temperature Precipitation Wind Pressure Humidity
    00:00 +20°C° 0 mm 1 mps 688 mmHg 85%
    01:00 +19°C° 0 mm 1 mps 688 mmHg 87%
    02:00 +17°C° 0 mm 0 mps 687 mmHg 90%
    03:00 +19°C° 0 mm 1 mps 687 mmHg 90%
    04:00 +18°C° 0 mm 1 mps 687 mmHg 90%
    05:00 +18°C° 0 mm 1 mps 687 mmHg 91%
    06:00 +19°C° 0 mm 1 mps 688 mmHg 86%
    07:00 +20°C° 0 mm 1 mps 688 mmHg 81%
    08:00 +21°C° 0 mm 1 mps 689 mmHg 76%
    09:00 +23°C° 0 mm 1 mps 689 mmHg 65%
    10:00 +25°C° 0 mm 1 mps 690 mmHg 53%
    11:00 +28°C° 0 mm 1 mps 690 mmHg 42%
    12:00 +29°C° 0 mm 1 mps 689 mmHg 37%
    13:00 +30°C° 0 mm 1 mps 688 mmHg 32%
    14:00 +31°C° 0 mm 1 mps 688 mmHg 27%
    15:00 +30°C° 0 mm 1 mps 687 mmHg 27%
    16:00 +30°C° 0 mm 1 mps 687 mmHg 26%
    17:00 +30°C° 0 mm 1 mps 687 mmHg 26%
    18:00 +28°C° 0 mm 1 mps 688 mmHg 28%
    19:00 +27°C° 0 mm 2 mps 688 mmHg 31%
    20:00 +25°C° 0 mm 2 mps 688 mmHg 33%
    21:00 +24°C° 0 mm 2 mps 688 mmHg 39%
    22:00 +23°C° 0 mm 2 mps 688 mmHg 45%
    23:00 +21°C° 0 mm 2 mps 688 mmHg 51%

    24 January, Thursday

    Time Temperature Precipitation Wind Pressure Humidity
    00:00 +22°C° 0 mm 1 mps 688 mmHg 55%
    01:00 +21°C° 0 mm 1 mps 688 mmHg 59%
    02:00 +20°C° 0 mm 1 mps 687 mmHg 63%
    03:00 +20°C° 0 mm 1 mps 687 mmHg 64%
    04:00 +20°C° 0 mm 1 mps 687 mmHg 65%
    05:00 +19°C° 0 mm 1 mps 687 mmHg 66%
    06:00 +19°C° 0 mm 2 mps 688 mmHg 64%
    07:00 +20°C° 0 mm 2 mps 689 mmHg 63%
    08:00 +21°C° 0 mm 2 mps 690 mmHg 61%
    09:00 +24°C° 0 mm 2 mps 690 mmHg 55%
    10:00 +26°C° 0 mm 3 mps 690 mmHg 48%
    11:00 +28°C° 0 mm 3 mps 690 mmHg 42%
    12:00 +29°C° 0 mm 3 mps 689 mmHg 38%
    13:00 +29°C° 0 mm 3 mps 688 mmHg 34%
    14:00 +30°C° 0 mm 2 mps 688 mmHg 30%
    15:00 +30°C° 0 mm 2 mps 688 mmHg 30%
    16:00 +30°C° 0 mm 3 mps 687 mmHg 31%
    17:00 +30°C° 0 mm 3 mps 687 mmHg 31%
    18:00 +28°C° 0 mm 2 mps 688 mmHg 34%
    19:00 +27°C° 0 mm 2 mps 688 mmHg 37%
    20:00 +25°C° 0 mm 2 mps 688 mmHg 40%
    21:00 +24°C° 0 mm 2 mps 688 mmHg 48%
    22:00 +23°C° 0 mm 2 mps 688 mmHg 56%
    23:00 +21°C° 0 mm 2 mps 688 mmHg 64%

    25 January, Friday

    Time Temperature Precipitation Wind Pressure Humidity
    00:00 +21°C° 0 mm 2 mps 688 mmHg 69%
    01:00 +21°C° 0 mm 1 mps 687 mmHg 74%
    02:00 +18°C° 0 mm 0 mps 687 mmHg 79%
    03:00 +18°C° 0 mm 0 mps 687 mmHg 80%
    04:00 +20°C° 0 mm 1 mps 687 mmHg 81%
    05:00 +19°C° 0 mm 1 mps 687 mmHg 82%
    06:00 +20°C° 0 mm 1 mps 688 mmHg 80%
    07:00 +21°C° 0 mm 1 mps 688 mmHg 77%
    08:00 +21°C° 0 mm 2 mps 689 mmHg 75%
    09:00 +24°C° 0 mm 2 mps 689 mmHg 66%
    10:00 +26°C° 0 mm 2 mps 689 mmHg 57%
    11:00 +27°C° 0 mm 3 mps 689 mmHg 48%
    12:00 +28°C° 0 mm 3 mps 688 mmHg 43%
    13:00 +29°C° 0 mm 3 mps 688 mmHg 38%
    14:00 +30°C° 0 mm 3 mps 687 mmHg 33%
    15:00 +30°C° 0 mm 2 mps 687 mmHg 32%
    16:00 +30°C° 0 mm 2 mps 687 mmHg 32%
    17:00 +30°C° 0 mm 2 mps 687 mmHg 32%
    18:00 +28°C° 0 mm 2 mps 687 mmHg 38%
    19:00 +27°C° 0 mm 2 mps 687 mmHg 45%
    20:00 +25°C° 0 mm 2 mps 687 mmHg 51%
    21:00 +24°C° 0 mm 2 mps 687 mmHg 59%
    22:00 +23°C° 0 mm 2 mps 687 mmHg 66%
    23:00 +22°C° 0 mm 1 mps 687 mmHg 74%
    Show more